User: anonymous
Location: Albany
(35.0000°S, 118.0000°E)
Time: 06:09:10
(UTC-04:00)
Language:

CZ-4B R/B - Orbit

View from above orbital plane
View from above orbital plane
View from above satellite
View from above satellite

Ground track
Ground track

The orbit data is extracted from the following two-line orbital elements,

1 33410U 08053C   14232.00179037  .00002359  00000-0  19175-3 0  8967
2 33410 097.5915 207.2528 0131173 053.1656 308.1511 14.94003115316374
Epoch (UTC): 20 August 2014 00:02:34
Eccentricity: 0.0131173
inclination: 97.5915°
perigee height: 494 km
apogee height: 677 km
right ascension of ascending node: 207.2528°
argument of perigee: 53.1656°
revolutions per day: 14.94003115
mean anomaly at epoch: 308.1511°
orbit number at epoch: 31637

The dashed part of the orbit path shows where the satellite is in the earth's shadow,  

DLR